Kosmos-1751

operational
NORAD ID: 16761 Int'l Des: 1986-042 Owner: UNKS Country: SU
LEOCIRCULAR

关于 Kosmos-1751

正在加载描述...

实时位置

正在加载3D地球...

即将过境

高度历史

Altitude vs Time

uPlot chart will show altitude changes over time

两行轨道根数

1 16761U 86042D 26062.60866670 .00000011 00000-0 18637-3 0 9996
2 16761 74.0168 285.8689 0024637 258.6779 116.0741 12.44891787806028
Epoch: Mar 3, 2026 • Age: 27 hours

当前状态

高度 1517.1 km
速度 7.10 km/s
星下点 73.97°N, 178.35°W
发射日期 Jun 6, 1986
运行时间 39.7 years
类型 other

技术详情

分类 Payload
质量 60.00 kg
干质量 60.00 kg
总质量 60.00 kg
长度 0.80 m
直径 0.80 m
跨度 0.80 m
形状 Poly
制造商 NPOPM
平台类型 Strela-1 11F625
阶段状态 In Orbit
所有者/国家 UNKS/SU

大型星座

Loading constellations...